Three Rivers, MI

4:07 AM EDT on July 21, 2017 (GMT -0400)
Three Rivers Municipal-Haines

Weather History for KHAI - May, 2013

Change the Weather History Date:

Wednesday, May 15, 2013

  Actual Average Record
Temperature  
Mean Temperature 66 °F -  
Max Temperature 76 °F 69 °F 89 °F (1982)
Min Temperature 56 °F 45 °F 33 °F (1966)
Cooling Degree Days 2    
Growing Degree Days 16 (Base 50)    
Moisture  
Dew Point 53 °F    
Average Humidity 52    
Maximum Humidity 73    
Minimum Humidity 40    
Precipitation  
Precipitation 0.00 in - - ()
Sea Level Pressure  
Sea Level Pressure 29.76 in    
Wind  
Wind Speed 11 mph (West)    
Max Wind Speed 18 mph    
Max Gust Speed 25 mph    
Visibility 10 miles    
Events      
Averages and records for this station are not official NWS values.
T = Trace of Precipitation, MM = Missing Value Source: NWS Daily Summary

Daily Weather History Graph

Daily Weather History Graph

Search for Another Location

Airport or City:

Trip Planner

Search our weather history database for the weather conditions in past years. The results will help you decide how hot, cold, wet, or windy it might be!

Date:

Astronomy

May. 15, 2013 Rise Set
Actual Time 6:21 AM EDT 8:56 PM EDT
Civil Twilight 5:49 AM EDT 9:28 PM EDT
Nautical Twilight 5:10 AM EDT 10:08 PM EDT
Astronomical Twilight 4:25 AM EDT 10:53 PM EDT
Moon 10:57 AM EDT (5/15) 12:41 AM EDT (5/15)
Length of Visible Light 15h 38m
Length of Day
14h 34m
Waxing Crescent, 26% of the Moon is Illuminated
May 15
Waxing Crescent
May 18
First Quarter
May 25
Full
May 31
Last Quarter
Jun 8
New

Hourly Weather History & Observations

Time (EDT) Temp. Dew Point Humidity Pressure Visibility Wind Dir Wind Speed Gust Speed Precip Events Conditions
12:14 AM 71.8 °F 55.6 °F 57% 29.72 in 10.0 mi SSW 9.2 mph - N/A   Clear
12:35 AM 71.6 °F 57.6 °F 61% 29.71 in 10.0 mi SW 10.4 mph - N/A   Clear
12:54 AM 72.3 °F 59.0 °F 63% 29.70 in 10.0 mi SW 13.8 mph 17.3 mph N/A   Clear
1:14 AM 72.0 °F 59.5 °F 65% 29.68 in 10.0 mi SSW 10.4 mph - N/A   Clear
1:35 AM 71.6 °F 59.9 °F 66% 29.67 in 10.0 mi SSW 12.7 mph - N/A   Clear
1:54 AM 71.6 °F 60.1 °F 67% 29.66 in 10.0 mi SSW 10.4 mph 16.1 mph N/A   Clear
2:15 AM 71.6 °F 60.4 °F 68% 29.65 in 10.0 mi SSW 9.2 mph - N/A   Clear
2:35 AM 72.3 °F 60.6 °F 67% 29.65 in 10.0 mi SW 13.8 mph 19.6 mph N/A   Clear
2:54 AM 72.5 °F 60.3 °F 65% 29.65 in 10.0 mi SW 9.2 mph 16.1 mph N/A   Clear
3:15 AM 72.7 °F 59.9 °F 64% 29.64 in 10.0 mi SW 10.4 mph - N/A   Clear
3:35 AM 73.4 °F 59.0 °F 61% 29.63 in 10.0 mi SW 13.8 mph 19.6 mph N/A   Clear
3:54 AM 73.4 °F 58.5 °F 59% 29.63 in 10.0 mi SW 10.4 mph 18.4 mph N/A   Clear
4:15 AM 73.4 °F 57.6 °F 58% 29.63 in 10.0 mi WSW 11.5 mph 18.4 mph N/A   Clear
4:35 AM 74.1 °F 56.8 °F 55% 29.63 in 10.0 mi WSW 10.4 mph 19.6 mph N/A   Clear
4:54 AM 74.3 °F 56.3 °F 53% 29.63 in 10.0 mi WSW 11.5 mph 17.3 mph N/A   Clear
5:15 AM 73.8 °F 55.8 °F 53% 29.64 in 10.0 mi WSW 8.1 mph 17.3 mph N/A   Clear
5:34 AM 73.4 °F 55.6 °F 54% 29.65 in 10.0 mi WSW 9.2 mph - N/A   Clear
5:54 AM 73.9 °F 55.2 °F 52% 29.66 in 10.0 mi WSW 15.0 mph 18.4 mph N/A   Clear
6:14 AM 73.9 °F 54.9 °F 51% 29.67 in 10.0 mi West 8.1 mph 17.3 mph N/A   Clear
6:34 AM 74.5 °F 54.0 °F 49% 29.68 in 10.0 mi West 12.7 mph 20.7 mph N/A   Clear
6:55 AM 74.3 °F 54.0 °F 49% 29.69 in 10.0 mi West 16.1 mph 21.9 mph N/A   Clear
7:14 AM 73.6 °F 54.3 °F 51% 29.70 in 10.0 mi West 12.7 mph 20.7 mph N/A   Clear
7:35 AM 73.0 °F 54.9 °F 53% 29.71 in 10.0 mi West 11.5 mph 23.0 mph N/A   Clear
7:54 AM 72.9 °F 55.6 °F 55% 29.72 in 10.0 mi West 10.4 mph 17.3 mph N/A   Clear
8:14 AM 73.2 °F 56.1 °F 55% 29.72 in 10.0 mi West 11.5 mph 17.3 mph N/A   Clear
8:35 AM 73.6 °F 56.7 °F 55% 29.73 in 10.0 mi West 10.4 mph 20.7 mph N/A   Clear
9:15 AM 73.4 °F 55.4 °F 53% 29.74 in 10.0 mi WNW 9.2 mph 19.6 mph N/A   Clear
9:35 AM 74.7 °F 52.5 °F 46% 29.75 in 10.0 mi WNW 16.1 mph 25.3 mph N/A   Clear
9:54 AM 75.2 °F 52.3 °F 45% 29.75 in 10.0 mi WNW 13.8 mph - N/A   Clear
10:15 AM 75.2 °F 51.4 °F 43% 29.76 in 7.0 mi NNW 11.5 mph - N/A   Clear
10:35 AM 73.6 °F 50.7 °F 45% 29.76 in 10.0 mi NW 10.4 mph 16.1 mph N/A   Clear
10:54 AM 75.2 °F 52.7 °F 45% 29.77 in 10.0 mi West 12.7 mph - N/A   Clear
11:15 AM 75.4 °F 51.3 °F 43% 29.77 in 10.0 mi NW 13.8 mph 19.6 mph N/A   Clear
11:35 AM 76.1 °F 49.8 °F 40% 29.78 in 10.0 mi NW 18.4 mph 21.9 mph N/A   Clear
11:54 AM 75.6 °F 49.8 °F 40% 29.79 in 10.0 mi WNW 15.0 mph 21.9 mph N/A   Clear
12:15 PM 75.6 °F 50.0 °F 41% 29.80 in 10.0 mi WNW 17.3 mph 23.0 mph N/A   Clear
12:34 PM 76.1 °F 50.2 °F 40% 29.81 in 10.0 mi WNW 17.3 mph 24.2 mph N/A   Clear
12:54 PM 75.7 °F 51.3 °F 42% 29.81 in 10.0 mi NW 10.4 mph 19.6 mph N/A   Clear
1:15 PM 75.2 °F 52.7 °F 45% 29.81 in 10.0 mi NW 10.4 mph 23.0 mph N/A   Clear
1:34 PM 75.4 °F 52.0 °F 44% 29.82 in 10.0 mi WNW 13.8 mph 21.9 mph N/A   Clear
1:55 PM 74.8 °F 51.4 °F 44% 29.81 in 10.0 mi West 12.7 mph 20.7 mph N/A   Clear
2:14 PM 75.6 °F 52.2 °F 44% 29.80 in 10.0 mi NW 11.5 mph 16.1 mph N/A   Clear
2:34 PM 76.3 °F 53.4 °F 45% 29.82 in 10.0 mi WNW 11.5 mph 16.1 mph N/A   Clear
2:55 PM 75.9 °F 53.2 °F 45% 29.82 in 10.0 mi West 16.1 mph 20.7 mph N/A   Clear
3:14 PM 75.4 °F 52.3 °F 44% 29.82 in 10.0 mi WNW 12.7 mph 17.3 mph N/A   Clear
3:35 PM 76.1 °F 51.3 °F 42% 29.82 in 10.0 mi WNW 17.3 mph 23.0 mph N/A   Clear
3:55 PM 76.3 °F 50.7 °F 41% 29.82 in 10.0 mi NW 12.7 mph 21.9 mph N/A   Clear
4:14 PM 76.1 °F 50.2 °F 40% 29.82 in 10.0 mi NW 15.0 mph 20.7 mph N/A   Clear
4:35 PM 76.1 °F 50.9 °F 41% 29.82 in 10.0 mi NW 13.8 mph 19.6 mph N/A   Clear
4:55 PM 76.5 °F 52.0 °F 42% 29.82 in 10.0 mi West 13.8 mph - N/A   Clear
5:14 PM 76.1 °F 50.7 °F 41% 29.82 in 10.0 mi NW 12.7 mph - N/A   Clear
5:35 PM 75.6 °F 51.8 °F 43% 29.81 in 10.0 mi NW 11.5 mph 18.4 mph N/A   Clear
5:54 PM 75.7 °F 50.9 °F 42% 29.82 in 10.0 mi NW 11.5 mph 19.6 mph N/A   Clear
6:15 PM 74.5 °F 49.6 °F 42% 29.81 in 10.0 mi NW 9.2 mph 16.1 mph N/A   Clear
6:35 PM 74.5 °F 50.7 °F 43% 29.81 in 10.0 mi WNW 11.5 mph - N/A   Clear
6:54 PM 74.3 °F 50.9 °F 44% 29.80 in 10.0 mi WNW 8.1 mph 17.3 mph N/A   Clear
7:15 PM 74.1 °F 50.5 °F 43% 29.81 in 10.0 mi NW 10.4 mph - N/A   Clear
7:35 PM 72.9 °F 50.5 °F 45% 29.81 in 10.0 mi WNW 6.9 mph 17.3 mph N/A   Clear
7:54 PM 71.2 °F 49.3 °F 46% 29.82 in 10.0 mi WNW 8.1 mph - N/A   Clear
8:15 PM 70.2 °F 48.9 °F 47% 29.81 in 10.0 mi WNW 8.1 mph - N/A   Clear
8:34 PM 67.8 °F 49.8 °F 52% 29.83 in 10.0 mi West 4.6 mph - N/A   Clear
8:54 PM 65.1 °F 51.4 °F 61% 29.82 in 10.0 mi Calm Calm - N/A   Clear
9:15 PM 65.3 °F 49.8 °F 57% 29.82 in 10.0 mi Calm Calm - N/A   Scattered Clouds
9:34 PM 67.5 °F 49.8 °F 53% 29.81 in 10.0 mi Calm Calm - N/A   Scattered Clouds
9:55 PM 64.9 °F 50.0 °F 58% 29.82 in 10.0 mi Calm Calm - N/A   Clear
10:15 PM 62.4 °F 51.4 °F 67% 29.83 in 10.0 mi Calm Calm - N/A   Clear
10:34 PM 60.8 °F 48.6 °F 64% 29.83 in 10.0 mi Calm Calm - N/A   Clear
10:55 PM 59.5 °F 48.2 °F 66% 29.83 in 10.0 mi Calm Calm - N/A   Clear
11:15 PM 59.4 °F 47.5 °F 65% 29.83 in 10.0 mi Calm Calm - N/A   Clear
11:34 PM 57.7 °F 48.4 °F 71% 29.84 in 10.0 mi Calm Calm - N/A   Clear
11:55 PM 56.5 °F 48.0 °F 73% 29.84 in 10.0 mi Calm Calm - N/A   Clear